Theta_e
313 313 313 313 314 313 313 313 314 314 314 314 314 314 314 314 314 314 314 313 314 312 312 312 314 316 316 312 310 310 309 308 309 313 318 318 308 310 311 312 321 328 328 326 324 330 335 334 330 327 327 330 334 339 339 342 354 361 364 364 363 368 367 364 367 365 365 367 364 362 362 365 366 365 365 364 357 354 355 352 350 350 349 349 350 350 351 351
314 314 314 314 314 313 313 313 313 313 314 314 314 314 314 314 314 314 313 313 313 312 312 313 314 315 314 312 310 311 311 310 314 320 322 311 310 310 310 313 321 329 329 329 328 332 336 339 334 327 328 332 337 340 342 344 350 360 366 366 366 371 366 361 365 365 364 365 361 362 364 365 364 365 367 362 357 355 355 353 351 352 350 350 350 351 351 350
314 314 314 314 314 314 314 314 313 313 313 314 314 314 314 314 314 313 313 313 313 312 313 314 315 315 313 311 311 312 313 315 326 337 326 312 314 310 312 314 319 329 330 326 327 329 330 333 331 327 331 337 340 340 344 348 353 361 364 368 372 369 364 361 364 365 364 361 360 364 366 366 363 366 367 359 356 356 354 354 353 354 352 352 351 351 352 350
313 314 314 314 314 314 314 314 314 314 313 313 313 313 313 313 313 313 313 313 313 313 314 315 316 315 313 310 311 312 314 322 337 336 327 324 316 310 315 315 318 325 326 323 323 328 328 329 330 330 335 339 342 341 344 349 357 362 360 371 372 364 367 365 363 366 363 359 360 363 365 365 363 365 365 356 356 356 354 352 353 354 353 351 351 350 351 350
313 313 313 313 313 314 313 314 314 314 314 313 313 313 313 313 313 313 313 313 313 314 315 316 317 316 313 310 312 314 318 332 334 328 329 327 316 313 315 316 319 319 321 321 320 325 328 329 333 335 339 344 345 343 345 347 354 362 362 368 366 364 371 368 365 365 361 361 361 362 364 363 362 364 364 357 354 355 352 351 352 352 352 351 351 351 350 350
313 313 313 313 314 314 314 314 313 314 314 313 313 313 312 313 313 313 313 313 313 314 315 317 317 314 311 310 313 316 323 329 327 326 328 323 316 315 316 316 319 318 319 320 319 325 328 329 335 338 342 344 345 344 344 345 353 364 366 362 360 364 370 367 364 364 361 362 362 362 361 361 362 363 364 359 356 358 352 349 351 350 351 351 351 351 350 350
313 313 313 313 313 314 314 314 314 314 313 313 313 313 312 313 314 313 313 314 313 314 315 316 316 314 310 311 316 319 323 322 320 323 323 320 316 313 316 317 317 318 318 319 320 325 328 332 336 338 342 341 341 340 338 343 353 363 367 362 363 365 366 364 360 362 363 362 362 362 362 361 362 361 360 361 364 364 354 348 350 350 350 350 350 350 349 350
313 313 313 313 313 313 313 314 314 314 313 314 313 312 312 314 314 313 313 313 312 314 315 316 317 314 310 313 321 324 324 322 316 319 319 318 315 312 315 318 318 317 317 318 320 324 330 333 335 339 342 340 338 335 336 349 355 363 367 361 362 364 364 360 357 360 362 362 363 364 364 361 360 362 361 365 366 359 351 349 350 349 350 350 350 350 350 349
313 313 313 313 313 313 313 314 314 314 314 314 314 313 313 313 313 312 312 312 312 314 315 315 316 313 312 317 321 318 318 319 316 318 320 320 315 312 316 318 319 318 317 318 317 323 330 333 335 339 341 339 336 333 342 359 360 364 367 360 360 362 361 359 358 360 361 361 361 363 367 363 362 363 364 368 363 352 350 350 349 350 350 350 350 350 350 349
313 313 313 313 313 313 314 314 315 315 315 314 314 313 313 313 312 312 312 311 312 313 315 316 315 313 313 320 319 312 317 323 324 324 322 320 316 318 320 319 320 318 317 317 317 321 329 334 335 337 338 337 333 333 347 361 361 361 360 358 360 360 361 360 360 360 361 361 360 363 364 361 363 365 364 365 356 349 352 350 349 350 350 350 349 349 349 349
313 314 313 313 313 313 314 314 315 315 315 314 313 313 312 312 312 312 312 312 312 313 315 316 315 313 314 321 318 309 319 327 328 326 324 321 318 321 321 318 320 319 318 317 316 318 326 332 332 336 340 338 332 334 347 355 359 359 357 360 358 359 362 360 362 360 360 362 361 362 360 359 363 364 364 359 350 351 353 350 350 350 350 350 349 350 349 349
314 314 314 314 313 314 314 314 315 315 315 314 312 312 312 312 312 312 311 311 313 313 315 316 315 314 317 322 320 313 319 327 326 323 323 322 319 320 319 318 318 319 317 316 316 316 323 327 330 339 342 340 334 332 347 354 357 357 360 365 361 361 364 361 362 358 359 361 361 363 359 362 364 361 362 354 348 352 352 351 350 349 349 349 348 349 349 348
314 314 313 313 313 314 314 314 315 315 315 314 312 312 312 313 312 312 311 311 314 313 317 317 315 316 320 322 319 313 316 322 322 320 321 321 320 320 319 320 319 318 318 317 316 316 318 321 330 341 341 340 333 328 347 355 356 358 360 365 364 365 366 363 361 357 360 359 359 363 358 361 365 362 364 355 348 351 350 351 349 348 349 348 349 348 347 348
314 313 314 314 314 314 314 314 315 316 315 314 312 311 312 313 312 311 311 312 313 313 317 316 315 318 321 319 314 310 315 318 318 319 319 320 321 322 321 321 320 320 319 317 319 321 321 323 329 337 336 338 331 331 353 355 356 363 361 365 368 363 362 364 360 358 363 358 359 365 359 360 364 362 365 357 347 350 349 350 349 348 348 348 348 347 347 347
313 313 313 314 313 314 314 314 315 316 315 313 311 312 312 312 311 311 310 311 312 312 315 315 317 321 323 320 314 313 322 322 320 319 319 320 320 322 322 321 321 320 319 316 320 325 328 328 330 331 330 331 329 337 358 359 360 363 357 361 365 361 362 365 360 359 364 360 360 365 359 360 363 361 365 359 349 351 350 349 349 348 348 348 348 347 346 346
313 314 314 314 314 314 314 314 316 316 314 312 311 312 312 312 311 311 311 312 313 312 314 316 318 321 323 320 316 319 325 325 323 320 319 320 318 319 321 320 319 319 319 316 318 325 327 329 330 328 326 327 328 339 355 356 356 359 358 359 360 359 362 364 362 360 363 363 362 364 362 363 364 361 365 361 352 352 351 349 349 348 348 348 347 346 346 346
313 313 313 314 313 314 314 315 315 316 314 311 311 312 313 313 311 311 312 311 311 312 315 317 317 319 320 317 319 323 325 326 326 322 321 319 317 317 318 317 316 316 316 317 319 323 325 327 329 327 327 328 328 338 350 349 348 351 356 360 357 357 359 361 365 362 362 364 365 366 364 364 362 361 363 362 356 353 351 350 349 348 348 348 348 346 345 346
313 313 313 313 314 314 314 315 315 316 314 311 312 312 314 315 312 311 313 314 315 314 316 316 318 322 318 314 320 322 321 324 326 323 321 320 317 317 318 318 318 318 319 321 323 325 326 326 327 327 327 328 327 333 341 343 347 346 349 355 355 357 358 360 365 364 363 365 367 366 365 365 362 360 362 364 361 352 349 350 349 349 347 348 347 346 346 344
313 313 314 313 314 314 314 315 315 315 314 312 313 313 316 316 315 314 315 318 322 321 319 320 324 324 317 317 320 319 319 321 324 323 321 319 318 318 321 322 322 323 325 327 327 326 326 325 325 326 325 327 326 328 334 339 343 344 348 353 354 357 360 363 366 364 363 366 367 365 364 365 363 361 363 367 364 352 350 351 349 350 348 348 348 346 345 344
314 313 313 313 314 314 315 315 315 315 314 313 312 315 320 322 322 321 320 321 324 320 317 322 325 322 319 320 319 319 321 322 322 322 320 320 318 320 324 325 325 326 327 331 329 326 327 327 326 326 325 328 327 327 331 331 331 335 349 355 355 356 359 366 369 362 363 365 366 365 363 363 362 361 362 364 362 354 354 354 349 351 349 346 347 346 345 343
314 313 314 314 313 314 315 315 314 315 315 314 312 316 324 325 323 323 324 324 321 318 318 320 321 320 319 319 319 320 321 322 323 322 321 320 320 322 325 326 327 328 327 329 327 325 327 327 327 328 326 326 325 326 327 326 324 330 347 356 354 356 359 365 367 361 361 365 363 363 362 361 362 361 359 360 360 358 358 355 348 350 350 348 346 345 344 342
313 314 313 313 314 314 315 315 315 315 316 315 313 317 322 320 318 319 320 321 319 318 319 318 318 319 318 318 319 320 320 322 324 325 323 322 322 324 325 326 328 330 327 325 325 327 327 326 329 327 323 322 322 325 323 323 325 325 340 355 353 357 363 363 364 359 358 364 363 361 361 362 362 358 356 357 359 359 358 357 354 348 347 346 344 344 343 341
314 314 313 313 314 314 315 315 315 316 317 315 313 316 319 317 317 317 316 317 318 318 320 320 320 320 321 321 320 321 322 324 324 325 323 324 325 325 326 326 327 328 325 325 326 325 324 326 329 325 321 322 322 323 322 321 322 320 333 352 354 357 359 358 361 359 357 360 360 361 363 364 362 358 356 354 356 359 359 360 360 355 352 349 347 345 341 341
314 314 314 314 313 314 315 315 315 316 316 317 316 318 319 317 318 317 316 318 317 317 319 319 322 324 325 323 321 322 324 323 323 324 324 326 326 325 326 326 326 326 325 327 327 325 325 326 325 323 323 323 322 324 322 320 320 319 326 342 353 358 357 358 360 359 359 360 358 358 358 360 363 362 360 356 356 359 361 364 364 364 364 363 360 353 345 342
314 314 314 313 314 314 314 315 316 316 317 318 318 318 319 319 318 317 319 321 320 320 318 315 318 322 322 320 320 322 322 322 324 324 324 324 325 324 324 324 325 326 326 325 324 325 325 323 321 323 324 322 321 322 321 320 318 317 319 329 348 361 360 360 360 356 358 358 357 356 353 355 361 363 363 359 359 359 360 365 365 365 367 367 368 361 350 344
314 314 314 313 314 313 315 318 317 315 318 320 319 319 320 320 318 317 321 325 323 322 318 315 316 318 316 318 320 321 322 324 324 323 324 323 323 324 323 323 324 326 325 324 324 324 324 323 322 322 324 323 322 321 322 321 315 315 320 322 341 361 362 359 357 354 354 354 357 358 354 353 355 359 362 360 360 360 358 362 362 362 365 367 369 365 356 345
314 314 314 314 314 313 316 320 317 316 321 320 319 320 319 319 318 315 322 327 324 319 317 315 314 315 315 317 320 323 324 325 324 323 325 324 323 324 324 324 324 323 323 322 320 322 323 323 322 322 324 323 323 321 321 322 316 316 324 330 347 362 362 360 356 352 353 354 357 359 354 353 353 357 360 359 361 361 358 361 362 361 364 365 366 367 364 351
315 315 314 314 314 313 315 317 316 319 321 318 318 320 319 318 317 316 323 325 318 314 315 313 313 314 315 316 319 324 324 322 324 323 323 324 323 324 325 325 324 324 325 322 319 322 322 322 322 324 323 322 323 322 322 323 318 320 333 347 355 360 359 359 354 350 352 354 355 356 351 352 354 356 358 358 360 362 360 361 362 361 362 363 364 364 367 365
315 315 314 314 314 314 316 316 317 319 318 317 318 319 319 317 318 323 328 322 314 313 315 312 313 315 315 317 319 321 320 320 325 325 322 323 323 323 326 326 325 325 325 322 322 324 322 322 324 322 322 323 323 322 322 322 319 328 346 355 355 356 357 359 355 349 349 350 351 351 348 351 355 356 357 357 358 361 363 363 363 362 360 360 361 362 364 370
314 315 314 314 314 315 315 315 316 317 317 317 318 319 320 321 327 331 325 317 312 314 314 312 313 315 317 318 318 319 320 319 325 325 322 323 323 322 324 324 324 326 326 324 323 323 321 324 327 324 323 323 323 323 322 320 327 340 354 358 355 353 356 361 359 349 345 347 349 346 346 350 351 353 356 356 357 362 364 365 365 363 362 360 361 363 362 366
314 315 315 314 314 314 315 317 316 316 317 317 319 321 323 328 336 334 322 314 314 315 315 313 314 316 317 318 319 319 319 320 323 324 324 324 322 322 322 322 323 326 328 326 322 323 321 322 326 328 328 323 321 323 321 320 331 346 356 358 354 351 351 356 356 349 344 346 346 344 346 345 343 349 356 355 357 360 361 364 365 362 362 362 360 362 363 364
315 316 315 314 314 313 316 318 317 317 316 317 320 326 334 332 329 330 324 317 316 315 315 315 314 315 317 318 319 319 317 318 321 324 325 323 323 325 324 326 326 321 322 325 322 324 324 324 326 328 330 326 321 321 323 323 331 345 352 350 350 350 348 349 349 346 342 340 340 344 347 346 346 352 356 356 356 358 358 360 363 362 361 362 360 360 364 364
315 316 315 314 315 315 316 317 316 318 317 319 323 334 344 335 323 326 327 319 316 316 316 317 315 315 317 317 318 318 317 316 321 324 322 321 323 324 322 325 326 322 321 323 321 320 321 325 326 324 327 329 324 321 322 324 330 343 346 340 344 346 343 345 345 340 340 340 342 347 347 348 353 356 357 359 360 360 361 358 359 361 360 362 360 360 365 365
315 317 315 315 316 315 316 317 317 320 318 319 330 338 337 329 323 327 327 321 320 318 315 316 315 314 317 318 318 318 317 317 320 322 320 319 321 321 321 321 322 324 324 320 319 319 318 322 328 326 325 328 328 327 329 330 330 338 346 341 338 338 335 338 341 338 341 344 345 348 348 349 354 355 355 358 356 357 360 359 358 359 360 361 361 362 364 364
316 318 317 316 316 316 319 320 319 320 318 325 340 340 329 324 325 326 324 323 321 317 315 315 316 315 314 318 318 316 317 316 318 320 320 319 317 318 320 319 319 323 322 318 321 322 316 320 331 329 327 329 329 330 334 333 326 328 335 334 332 336 335 334 335 338 342 346 348 350 351 351 354 353 353 355 354 354 357 359 360 361 359 361 361 361 363 363
316 319 318 317 316 318 320 321 319 318 322 336 345 337 329 327 325 322 324 323 316 314 317 317 316 316 313 316 318 318 316 315 318 319 318 318 318 316 317 318 319 320 320 321 323 322 316 321 333 329 326 331 331 332 332 329 327 327 327 327 331 337 339 335 334 339 343 349 351 350 352 353 354 356 355 355 356 356 355 357 360 360 358 358 360 360 361 363
316 318 321 319 318 320 320 320 320 318 326 342 341 332 333 330 320 321 326 322 313 316 321 318 316 315 314 315 318 320 319 319 319 318 315 317 319 317 317 319 319 319 321 321 321 323 319 320 329 328 326 328 328 329 329 327 332 330 324 327 330 328 333 339 342 346 348 352 352 348 351 354 353 356 357 357 358 356 353 355 358 359 357 357 359 359 359 361
317 318 322 322 319 320 321 320 319 323 336 347 340 334 335 327 319 319 319 315 315 319 321 317 316 316 317 319 319 320 321 319 319 319 318 318 318 317 316 319 320 319 319 319 320 323 320 318 326 330 326 326 327 329 325 322 327 328 326 330 328 324 324 328 338 347 348 351 353 349 349 352 352 355 356 359 359 355 351 353 357 360 358 356 358 359 359 360
318 323 327 323 321 321 321 321 322 331 343 343 336 334 329 323 321 319 316 316 318 320 319 317 318 319 320 321 320 320 320 319 318 320 320 319 318 318 316 317 320 320 319 320 322 323 324 319 320 326 325 323 328 330 323 320 323 326 330 330 327 330 328 321 330 344 347 349 352 349 348 352 354 356 357 357 357 353 351 352 354 355 356 355 356 357 357 358
320 327 329 322 320 321 321 322 324 334 338 332 331 332 323 320 321 318 317 318 318 319 318 318 321 322 320 321 321 320 321 320 320 320 320 319 317 318 317 315 317 320 319 322 323 322 326 322 317 325 327 322 324 329 327 323 322 324 326 323 322 325 325 321 324 336 345 349 350 349 350 352 353 354 357 357 354 351 350 351 352 351 353 353 353 354 355 355
321 324 328 322 320 323 323 322 323 330 333 329 328 326 320 322 322 318 318 319 318 319 319 320 323 323 322 322 321 319 323 324 323 322 321 319 318 318 318 315 316 319 320 325 326 321 323 326 323 322 320 316 320 327 331 328 328 328 326 323 323 323 321 320 321 331 343 346 345 347 350 352 351 351 354 353 349 348 348 349 349 348 349 350 351 351 352 352
323 324 325 320 321 324 323 325 329 329 329 329 327 322 321 324 321 316 318 319 319 318 319 320 321 322 322 322 321 322 326 326 322 322 320 318 318 317 317 317 316 319 321 323 323 323 328 334 329 323 321 320 320 322 324 324 327 329 326 326 328 326 324 322 323 335 345 343 344 348 350 352 350 350 352 350 346 346 347 347 346 346 346 346 347 349 349 349
327 325 323 318 321 323 321 327 334 332 330 331 327 321 321 322 318 317 317 318 319 319 320 319 319 321 320 321 321 322 325 324 321 322 322 319 317 316 318 318 317 319 324 322 322 327 333 333 329 329 333 330 325 328 331 327 325 324 322 324 326 327 331 330 334 346 348 345 349 351 351 352 351 350 352 349 344 343 343 343 344 345 345 345 345 346 346 347
327 326 328 323 319 320 322 323 327 334 341 337 325 321 321 319 317 317 315 317 319 319 320 318 318 320 319 319 321 321 322 322 319 321 322 318 317 319 319 319 316 317 320 322 326 326 327 330 330 327 324 321 321 327 331 330 329 324 321 324 332 338 342 339 342 351 349 344 347 350 351 352 350 350 349 345 343 342 340 340 341 342 344 344 344 343 343 345
329 328 332 329 319 318 324 324 323 332 338 333 325 323 322 318 317 316 315 317 319 318 319 318 318 320 321 321 323 321 322 321 319 321 322 319 319 320 319 318 318 321 327 330 332 331 330 334 337 330 321 321 324 324 326 330 329 324 322 326 335 343 345 342 341 347 347 344 346 348 351 352 349 348 347 344 342 341 339 339 339 340 342 341 341 341 341 342
333 331 333 335 326 318 321 323 322 325 329 329 328 324 320 319 318 317 316 316 317 319 321 319 319 321 321 324 326 326 324 322 322 324 322 320 320 318 317 318 318 328 339 335 332 341 341 333 338 340 329 326 333 335 336 333 323 317 320 325 334 342 347 345 343 345 347 348 350 350 350 352 350 348 346 344 341 341 340 339 339 339 340 338 338 338 339 340
333 329 327 331 332 327 325 324 322 321 324 326 324 321 320 320 318 318 318 316 316 321 323 321 322 324 322 323 327 328 328 325 325 326 322 321 323 322 321 319 317 329 341 329 326 346 347 326 329 337 325 323 331 329 326 326 319 316 320 324 333 342 346 344 340 341 345 346 350 352 350 350 350 348 345 343 341 342 340 339 339 339 339 338 336 336 337 338
331 330 325 323 328 332 327 321 321 324 325 325 323 321 322 319 317 318 319 318 318 320 324 324 324 326 326 327 328 329 333 331 327 327 325 324 328 329 325 321 319 326 333 324 324 341 341 324 323 326 319 320 324 319 318 321 318 321 328 330 334 340 346 347 343 345 348 344 346 349 349 350 349 346 344 341 341 342 341 339 338 337 337 337 335 336 335 335
330 333 331 325 327 335 330 322 323 324 325 333 333 323 318 318 317 316 317 321 322 322 324 325 322 324 328 334 337 333 332 330 324 324 325 324 327 327 323 323 323 324 327 325 324 331 337 332 326 325 321 318 320 320 319 321 320 323 332 338 342 344 346 347 345 348 351 349 347 348 348 348 346 343 342 340 339 340 340 339 337 336 337 336 335 335 335 334
327 329 331 331 336 341 336 329 330 326 326 336 334 321 318 319 318 316 316 320 324 324 325 324 320 320 322 327 332 330 327 328 324 319 321 323 326 325 322 320 322 324 327 327 323 326 338 338 331 331 327 318 320 322 318 320 324 322 325 332 340 346 347 346 345 347 349 348 346 346 347 346 343 341 339 339 339 339 339 339 338 336 336 335 335 335 334 332
323 322 325 335 345 345 337 332 336 335 328 330 328 323 324 321 317 319 318 318 322 324 324 322 319 320 321 321 323 322 321 324 323 318 319 322 321 321 322 319 320 324 325 324 324 327 337 339 334 337 332 318 317 322 320 322 323 320 322 324 326 339 347 346 346 346 345 347 345 345 347 346 341 338 338 338 338 337 338 339 338 336 335 334 334 333 332 331
325 324 324 333 342 341 334 331 335 335 326 324 325 324 324 320 319 325 324 319 319 320 321 323 323 324 324 322 321 320 317 319 321 317 317 317 317 317 320 318 319 322 320 321 327 330 336 338 332 333 331 321 317 323 328 329 323 320 326 323 322 339 349 344 345 345 343 344 345 345 346 343 338 337 338 338 337 337 337 336 336 335 334 333 332 331 330 329
Wind_Speed
13 13 13 13 12 12 12 12 12 12 12 11 11 11 11 11 11 11 11 11 11 11 12 12 11 10 9 7 7 8 11 13 12 7 9 12 13 13 10 11 14 18 20 19 18 13 9 6 7 9 7 4 3 1 4 5 2 2 1 2 2 2 1 2 2 2 4 8 9 7 6 6 6 3 1 3 6 8 8 6 7 8 10 12 17 25 26 26
13 13 13 13 13 12 12 12 12 12 12 12 11 11 11 11 11 11 11 11 11 12 12 12 11 10 9 7 7 8 12 14 12 11 17 15 8 12 15 14 16 21 22 20 20 18 11 6 8 8 5 2 2 3 4 4 5 3 1 1 2 1 1 3 2 3 3 7 9 6 4 4 6 4 1 5 8 8 9 8 9 12 12 14 20 25 25 25
14 14 14 14 13 13 13 13 13 13 13 12 12 12 11 11 11 11 11 11 11 12 12 11 10 9 8 6 6 8 11 10 7 9 12 12 12 14 18 19 19 22 23 20 20 19 12 10 12 8 4 2 2 4 3 3 5 4 2 1 2 3 2 3 4 4 4 8 11 6 2 3 4 2 1 7 10 8 10 9 11 14 14 15 17 22 23 22
15 15 15 15 15 14 14 14 13 13 13 13 13 12 11 11 11 11 11 11 12 12 12 11 10 8 6 5 5 7 8 5 3 5 3 5 13 18 22 23 21 22 21 17 16 15 8 8 11 6 2 2 2 3 3 3 4 3 3 3 2 5 3 3 5 4 6 9 10 7 4 5 3 2 2 10 11 6 8 9 13 16 17 18 17 19 21 20
15 16 16 16 16 16 16 15 14 14 14 14 13 13 12 12 11 11 11 11 12 11 11 10 9 7 4 4 4 6 5 0 2 3 2 3 13 24 24 23 21 21 20 13 12 13 6 4 6 3 1 2 2 2 4 6 5 2 3 2 3 5 3 3 4 6 9 6 7 7 7 6 3 2 2 9 11 6 8 11 14 17 18 19 18 18 18 18
15 16 16 16 16 17 16 16 16 15 15 14 13 13 13 12 11 11 11 12 12 11 10 9 9 5 2 2 3 4 1 2 4 3 1 2 12 26 24 22 19 19 21 14 9 11 6 3 4 2 2 1 3 4 5 5 6 2 1 1 2 4 4 5 4 5 7 7 7 7 6 4 4 3 1 5 7 4 8 12 15 17 19 21 20 17 15 15
16 16 16 16 16 16 17 17 17 16 16 15 14 13 13 12 11 11 11 12 11 11 10 9 8 2 1 1 1 2 1 5 7 4 4 2 11 26 25 20 17 18 21 15 9 9 5 5 5 3 2 2 4 6 6 4 6 4 1 2 2 5 6 7 7 4 3 4 3 5 5 4 7 6 2 3 3 4 10 13 14 17 20 22 18 14 14 15
16 16 16 16 16 16 17 17 17 17 16 15 14 13 13 12 11 11 12 11 11 11 10 9 6 2 1 1 1 3 1 7 7 6 6 3 12 24 25 20 18 19 20 15 10 8 6 7 6 4 3 4 4 5 6 3 4 4 3 3 4 5 6 9 10 6 5 4 4 2 6 5 8 6 3 2 1 9 15 14 14 16 17 17 15 14 14 14
18 17 17 16 16 17 17 17 17 17 16 15 14 13 13 12 11 11 11 11 11 11 10 7 4 2 2 1 1 2 4 6 6 5 5 9 15 23 25 21 20 19 17 14 11 8 6 7 6 4 3 4 5 5 4 4 2 2 4 4 6 6 6 9 10 8 7 4 2 1 4 4 4 3 3 2 4 15 17 15 15 15 15 13 13 14 13 12
19 18 17 17 17 17 18 17 16 17 16 15 14 13 13 12 11 11 10 11 10 10 9 5 2 3 3 2 3 1 4 2 2 6 7 13 19 24 25 21 22 21 15 11 13 11 6 6 6 4 3 3 5 5 4 6 3 5 9 9 8 7 5 7 9 8 6 5 4 3 4 3 3 1 2 0 9 18 17 16 16 15 15 13 12 13 14 14
19 19 18 18 17 18 18 18 17 16 16 15 14 13 12 11 11 10 10 10 9 8 6 3 3 5 4 2 4 4 5 4 3 5 7 15 21 24 24 23 24 24 17 9 14 16 8 4 3 2 2 3 4 3 1 4 6 10 12 10 8 6 5 6 9 8 4 4 5 6 6 5 8 2 3 6 13 18 18 17 16 15 13 12 13 12 12 13
20 20 19 19 18 18 19 19 18 16 15 15 14 12 10 10 9 9 10 7 6 5 2 2 5 7 4 2 4 8 4 4 2 4 6 14 20 22 22 24 24 25 22 11 11 19 12 3 1 0 2 3 4 3 2 4 8 8 8 8 4 3 5 6 9 8 4 3 4 8 8 2 5 1 2 9 15 17 19 17 15 14 12 11 12 10 9 13
22 21 20 20 20 20 20 19 19 17 15 14 14 12 8 9 8 8 7 4 3 3 1 3 6 6 2 1 8 10 5 2 1 3 7 11 16 20 21 22 22 23 22 14 8 14 16 9 4 2 3 3 4 2 4 5 6 5 4 5 4 2 2 3 7 9 6 3 1 4 6 3 2 3 3 6 16 17 18 16 15 13 11 11 10 9 9 13
23 22 21 21 21 21 21 20 19 17 15 14 13 10 7 7 6 6 4 1 1 1 2 5 7 4 1 5 9 6 5 4 5 8 8 11 13 14 17 18 19 21 19 14 7 7 13 12 7 4 4 4 5 2 5 4 3 4 3 3 3 2 2 3 5 8 8 3 2 0 4 4 4 5 5 5 15 17 17 16 15 13 11 11 10 10 10 11
24 23 22 22 22 21 21 20 19 17 16 14 12 8 4 4 3 3 2 2 2 3 6 8 7 2 2 7 9 4 3 4 10 16 13 12 12 10 15 17 16 18 16 14 11 6 6 6 4 3 4 4 3 1 4 3 2 2 3 0 0 2 2 4 5 6 6 5 4 1 4 3 5 6 5 4 14 15 16 15 14 13 13 12 10 10 10 10
24 23 23 23 22 22 21 20 19 17 16 14 9 4 2 1 1 3 4 4 4 7 9 7 4 2 1 5 5 2 3 5 10 14 15 14 12 10 16 16 11 14 14 13 12 8 4 2 2 4 3 2 3 4 3 3 1 1 2 2 2 3 2 3 5 3 3 7 4 2 4 3 4 6 4 4 13 14 14 14 14 13 13 13 10 9 9 9
25 24 23 23 23 22 21 20 19 17 16 12 5 1 2 2 3 4 4 5 6 8 8 2 1 1 3 6 4 3 4 8 8 10 14 16 13 11 14 11 5 8 9 8 7 6 2 1 3 3 1 2 3 5 4 2 2 2 1 2 2 3 3 4 5 3 5 7 4 2 5 4 3 6 5 6 11 13 14 14 13 12 12 12 10 9 9 8
25 24 23 23 23 22 20 19 18 17 15 11 5 1 3 3 4 5 6 8 7 5 2 2 2 1 3 5 3 4 7 7 7 9 14 16 14 13 13 7 4 7 4 1 4 3 2 1 1 1 1 2 3 4 4 4 4 4 3 2 2 3 3 4 4 5 8 6 5 6 5 5 5 6 7 8 9 12 14 14 13 12 12 11 10 10 8 8
26 24 23 23 23 22 20 18 18 17 14 9 5 1 4 5 5 4 6 6 4 1 2 3 2 1 1 4 5 8 12 8 4 9 14 15 13 12 10 5 6 7 5 2 2 4 3 0 2 3 3 3 4 5 6 5 4 5 4 3 5 4 3 3 2 4 8 5 5 7 5 7 9 9 9 5 4 11 13 11 12 11 11 11 10 10 8 8
26 25 24 23 23 21 19 18 18 17 14 9 4 3 4 4 3 0 2 3 4 5 5 4 6 2 4 5 5 8 11 7 4 9 15 16 11 8 4 2 5 5 4 3 3 3 3 2 3 4 6 5 5 7 7 4 3 3 3 3 4 3 3 3 4 6 6 3 3 3 3 7 11 10 7 2 1 9 10 9 11 10 11 11 10 10 9 8
26 24 24 23 22 21 19 18 18 16 13 10 4 3 2 2 2 2 3 4 7 10 9 7 8 7 7 7 6 5 6 4 3 5 16 16 9 7 1 1 5 2 3 4 3 0 3 3 6 7 7 6 5 6 6 2 3 2 3 4 3 3 3 2 5 8 5 2 2 3 3 5 7 6 4 3 1 4 4 7 12 12 11 10 11 12 9 7
26 24 23 23 22 21 19 19 18 13 12 11 5 1 3 3 2 1 1 3 7 9 11 9 6 7 10 13 13 5 0 2 6 4 11 14 7 5 2 3 5 3 2 2 1 2 2 3 9 8 5 4 3 4 4 2 3 2 3 4 3 3 4 3 6 9 3 0 3 6 6 5 5 4 4 3 1 0 3 1 7 12 12 10 11 12 9 8
26 24 23 21 21 20 18 19 16 10 11 11 4 2 4 5 5 7 3 1 6 4 6 6 4 5 6 10 11 6 3 3 4 4 8 13 6 5 5 4 5 4 1 3 4 2 1 5 9 7 4 4 3 4 2 1 1 2 3 3 3 6 5 2 5 7 2 0 4 5 4 3 5 5 3 2 1 2 2 5 3 6 10 9 9 9 10 10
25 24 22 20 20 18 17 19 13 8 14 13 7 7 12 16 14 9 2 0 4 4 4 6 5 5 5 4 5 8 3 3 5 4 7 11 5 3 5 4 5 4 2 3 6 5 5 7 4 2 3 5 4 5 2 2 2 2 4 4 4 8 5 3 7 8 4 2 6 7 2 1 4 5 4 2 1 4 1 3 4 3 3 5 4 5 9 11
25 23 22 20 19 16 16 15 6 8 18 13 8 14 20 20 15 5 2 2 3 5 3 3 3 3 5 3 7 7 3 2 4 4 7 10 7 4 3 3 4 4 4 3 5 4 8 7 0 1 3 5 4 5 3 5 2 3 4 8 8 11 7 10 12 8 4 1 5 8 3 3 3 6 7 4 4 6 2 1 2 3 2 4 5 5 8 10
25 23 21 18 17 16 13 6 3 12 15 7 9 19 18 15 12 3 3 4 2 4 2 1 1 2 2 2 6 5 4 2 6 5 8 11 10 6 2 1 1 4 5 3 3 3 5 4 4 4 5 4 5 5 3 7 3 3 5 8 9 10 11 15 15 8 3 3 6 6 3 1 2 4 7 6 7 7 5 3 2 3 2 2 3 3 6 8
25 22 20 17 16 15 9 3 8 11 6 5 13 18 16 12 7 1 3 5 2 1 0 1 1 0 1 2 4 7 3 3 2 3 6 12 9 4 4 3 1 3 3 3 2 3 4 3 4 6 5 5 5 5 5 8 5 3 5 7 11 13 14 17 14 6 3 3 5 4 2 2 1 2 6 8 8 8 8 8 5 3 3 0 1 0 3 7
25 22 20 16 14 13 8 7 10 6 3 9 16 16 15 11 2 2 4 3 1 1 1 1 2 1 2 3 2 5 3 3 4 3 5 12 8 4 4 5 5 4 3 5 4 5 4 5 6 7 5 5 5 5 7 9 6 5 3 5 10 12 13 14 9 4 3 5 4 5 3 2 1 2 6 7 7 9 11 11 8 6 5 3 3 1 1 4
24 21 18 15 13 11 7 7 8 5 7 13 16 16 14 7 2 3 4 2 1 2 1 0 2 2 1 1 0 1 1 1 3 3 2 7 4 3 4 5 5 5 4 5 6 6 3 6 7 7 5 6 7 7 8 9 7 2 5 8 8 10 10 8 4 3 3 3 4 8 6 2 1 3 6 6 5 9 11 10 8 7 6 4 3 2 1 2
23 19 17 14 12 8 6 9 9 7 10 13 16 16 10 4 3 4 3 1 1 3 1 1 2 1 3 2 1 2 1 1 0 1 3 2 1 3 2 3 4 2 4 1 4 6 5 4 4 5 6 7 7 7 8 9 6 6 10 9 8 6 5 4 3 3 2 1 4 10 9 3 0 2 5 5 3 6 9 8 8 8 6 5 4 3 2 2
21 17 15 13 11 6 4 7 7 8 11 14 16 12 6 4 3 4 1 1 0 2 2 1 2 0 4 4 1 1 2 1 1 4 3 2 2 3 2 1 2 1 3 4 3 5 4 3 3 4 6 7 5 5 6 7 7 8 7 6 6 4 4 5 4 4 0 3 4 7 9 4 0 1 2 5 3 3 9 10 11 13 9 6 5 4 3 1
18 15 13 12 10 8 7 6 8 10 11 12 11 6 4 3 3 1 1 2 1 2 2 2 3 2 3 3 1 1 2 0 0 4 4 3 2 2 2 2 3 0 3 3 3 4 3 4 4 4 5 6 6 4 2 3 6 7 7 6 6 2 3 3 2 2 3 3 2 7 9 2 2 2 2 5 5 3 7 9 9 11 11 8 5 4 3 2
16 13 10 10 9 11 11 10 10 9 8 8 6 4 5 4 1 1 2 2 1 3 3 3 3 3 4 3 1 1 1 2 3 3 2 3 3 3 3 3 5 4 1 3 2 3 3 5 4 2 4 4 8 5 2 4 6 8 8 7 5 3 1 1 1 2 3 1 2 6 8 1 2 1 5 3 1 1 3 7 7 7 9 8 5 5 4 3
15 10 8 10 12 12 11 9 7 4 5 6 5 4 5 3 1 2 2 3 3 3 2 1 3 3 4 3 3 2 2 2 3 4 3 3 3 1 3 3 3 4 2 1 1 1 2 4 4 5 4 4 7 7 6 7 7 8 9 9 8 6 4 3 5 3 2 1 4 2 4 1 1 1 6 5 4 4 3 5 8 8 7 5 4 5 4 3
14 10 9 11 11 11 7 3 2 1 2 5 5 4 3 0 3 2 2 4 3 3 3 3 5 4 3 1 3 1 3 2 0 4 4 3 2 1 2 3 3 4 4 1 2 2 3 5 7 5 4 5 7 6 6 7 5 4 5 7 6 6 6 3 3 4 4 4 3 3 1 1 1 2 5 4 5 5 5 5 7 8 7 7 5 4 4 3
13 10 9 9 9 7 3 1 6 6 2 4 5 3 1 2 3 2 3 3 2 2 2 5 5 4 3 3 4 4 2 1 2 3 3 3 2 2 2 3 2 3 4 3 3 1 1 4 7 3 2 4 8 7 5 5 5 2 3 5 5 4 7 4 1 3 4 4 2 1 1 1 1 1 3 3 6 6 6 5 6 7 8 8 6 5 5 3
14 10 7 8 9 4 1 3 8 8 3 5 4 1 2 3 3 4 3 4 3 2 4 4 3 3 1 1 3 5 3 3 4 2 2 2 1 3 4 4 2 2 4 3 2 2 2 4 7 2 2 3 3 6 3 1 5 5 3 5 3 3 4 4 3 3 3 3 1 1 1 0 1 0 2 1 5 6 6 5 6 7 8 8 6 4 4 4
14 9 6 7 7 2 5 6 9 7 4 5 2 2 2 2 3 3 4 4 2 4 5 3 1 2 2 1 2 4 2 2 3 2 2 3 1 1 3 4 2 1 3 3 2 0 3 1 7 3 4 2 3 6 4 4 2 5 5 3 3 3 1 2 3 2 2 3 1 2 3 2 2 1 1 1 5 6 6 6 4 5 7 9 8 6 5 4
8 5 3 4 6 2 9 10 7 5 5 3 2 2 1 3 5 4 4 2 2 4 4 1 2 3 2 2 1 2 2 2 2 2 2 2 0 1 2 1 3 5 4 2 4 1 2 2 4 5 2 1 4 4 2 2 4 4 3 2 2 3 3 3 2 3 4 4 3 1 2 3 2 1 1 3 5 6 5 6 6 3 3 6 6 6 5 3
3 2 2 6 5 6 12 9 5 5 3 1 1 2 2 3 5 5 4 2 3 2 2 1 2 3 1 1 1 1 2 1 2 4 2 0 0 2 3 1 2 5 4 2 3 2 1 3 2 5 4 1 1 1 5 5 2 3 3 2 1 2 2 3 2 2 4 4 3 3 1 3 2 1 1 4 6 6 5 7 7 6 6 6 5 5 5 3
3 2 3 5 5 13 12 6 3 2 1 1 2 3 3 3 3 6 6 3 3 2 3 4 3 3 2 1 2 1 2 2 1 4 2 0 1 1 3 0 2 5 3 4 4 0 0 2 3 2 2 2 2 3 6 8 6 5 4 3 3 3 4 4 2 2 2 4 4 4 3 2 2 1 3 6 6 6 6 7 8 7 7 7 5 6 6 4
4 1 2 3 8 12 9 4 2 1 1 1 2 3 3 3 2 4 5 4 4 2 3 3 2 2 2 1 1 1 3 2 2 3 3 1 2 3 3 2 3 3 2 1 3 2 1 2 3 1 2 3 5 5 3 5 5 6 4 3 4 4 4 5 3 2 2 4 2 3 2 0 1 1 1 4 5 5 5 6 8 7 6 6 6 7 7 5
2 2 3 2 6 8 6 3 4 3 1 4 2 3 3 1 2 3 4 4 3 2 3 2 1 3 2 1 0 1 3 2 1 2 3 1 1 4 5 6 5 1 3 2 3 2 0 2 3 2 3 3 5 5 4 4 5 6 2 2 4 3 3 5 5 4 4 3 2 3 2 2 2 2 0 4 5 5 6 6 7 7 5 6 6 7 8 7
1 3 3 4 4 8 4 1 3 3 4 4 3 2 2 0 1 3 4 3 2 2 3 2 1 3 2 1 2 1 2 2 1 1 3 2 1 4 5 7 6 3 3 1 2 1 1 1 3 2 2 3 4 5 6 6 3 2 2 1 5 7 8 6 3 4 3 3 4 4 2 2 2 1 3 6 6 6 6 6 6 6 5 6 6 6 7 7
1 1 3 5 1 5 3 3 4 2 4 3 4 4 4 2 0 1 3 3 3 2 3 1 1 3 3 3 4 3 1 3 1 2 3 2 2 3 5 8 6 4 2 2 2 1 1 2 3 4 4 3 2 1 1 2 3 2 2 3 5 9 10 7 4 5 2 3 3 4 4 4 4 5 6 7 7 7 6 6 6 5 6 6 6 6 6 6
2 1 3 5 4 2 2 2 4 3 3 0 2 3 2 3 2 2 3 4 4 3 3 1 2 4 5 5 5 5 5 3 3 2 3 1 3 2 4 6 6 7 7 6 4 2 3 3 3 5 5 5 6 5 4 3 2 0 1 3 4 5 7 7 5 3 4 5 2 0 6 11 9 9 9 8 7 7 6 6 6 6 7 7 7 6 7 7
2 1 1 2 3 2 2 3 2 1 2 2 1 2 2 4 4 4 4 3 4 5 4 2 3 3 2 3 4 3 5 6 6 4 2 2 2 3 5 5 7 10 11 8 7 3 4 4 5 4 2 2 4 2 1 4 4 2 1 2 4 5 6 6 4 5 9 7 1 3 11 15 13 12 11 9 7 7 6 6 6 7 8 9 8 9 9 8
1 0 1 1 0 1 1 3 1 2 3 3 1 1 3 6 5 4 4 3 3 5 4 3 4 3 3 3 4 2 4 5 5 4 3 3 3 4 7 5 5 9 8 6 6 3 5 3 5 3 4 5 4 5 5 6 5 4 4 4 4 5 7 6 3 5 8 5 5 10 13 13 12 12 11 10 9 8 8 7 7 8 8 9 10 10 10 9
2 1 2 1 0 3 3 4 2 3 5 3 2 3 3 4 5 3 3 3 4 5 3 3 4 4 5 5 5 3 4 3 3 4 2 2 3 3 4 4 4 6 7 5 5 2 5 3 7 4 4 8 9 7 6 8 7 8 9 7 6 7 8 8 6 5 7 7 10 15 12 8 8 10 11 10 9 8 7 6 7 9 8 8 9 10 10 10
1 0 2 2 2 3 3 3 0 3 4 3 3 3 2 3 5 4 3 4 3 5 4 5 4 5 6 7 7 3 1 3 2 3 1 3 3 1 1 1 3 5 7 4 4 4 3 2 6 4 3 7 9 7 7 8 9 10 9 9 9 9 10 9 8 8 10 10 12 14 12 7 4 7 9 9 9 9 8 6 7 8 8 8 8 9 9 10
2 3 0 2 2 4 3 3 2 4 3 3 2 2 2 2 3 4 5 4 2 2 3 4 5 5 5 8 8 3 2 3 3 4 3 2 1 1 1 1 1 2 5 3 3 5 3 1 4 4 4 4 6 7 7 6 10 10 9 9 8 5 6 5 4 6 10 13 14 13 10 7 6 8 10 10 10 11 9 8 8 7 7 8 8 8 8 8
5 3 1 3 0 3 3 3 3 4 1 2 1 1 2 1 1 4 4 4 4 4 3 3 4 4 5 7 6 3 3 3 4 5 3 2 1 3 2 2 4 4 2 2 2 3 3 3 2 4 3 3 6 6 4 5 8 6 4 5 4 1 4 5 2 3 10 15 14 9 8 8 9 12 13 12 12 12 10 9 9 8 7 7 7 8 8 7
Wind_Direction
342 340 340 338 336 335 334 334 332 330 330 329 329 330 329 328 326 326 323 321 320 317 317 318 317 318 319 321 319 313 311 306 305 283 234 252 249 227 213 196 177 161 166 178 175 160 147 162 186 185 180 178 189 196 174 193 180 114 190 224 264 298 299 281 188 164 117 142 161 166 172 162 148 158 176 114 113 121 110 82 91 95 101 114 128 139 142 145
342 341 340 338 335 334 334 332 330 329 327 327 328 327 327 326 324 323 321 320 319 316 317 317 318 320 318 321 319 317 318 312 306 273 246 250 247 210 197 187 176 163 160 168 171 158 147 170 182 176 168 159 190 178 165 177 172 181 194 196 259 244 253 273 176 144 143 147 154 160 166 169 153 142 145 133 135 125 110 113 115 108 110 118 132 141 145 145
340 339 338 336 334 333 332 330 328 327 325 325 324 324 324 323 322 321 319 318 317 317 317 317 320 321 317 316 322 324 320 320 303 264 254 242 222 198 182 179 177 170 166 172 176 167 157 164 168 161 150 178 206 182 190 180 174 194 189 256 252 164 206 240 183 157 149 149 148 155 161 150 137 93 67 138 136 132 131 139 134 126 132 135 139 146 149 146
339 338 336 334 333 331 329 328 326 324 323 323 321 321 320 319 319 318 317 316 317 319 318 319 322 321 316 310 321 328 322 320 277 238 259 236 200 183 175 176 176 179 177 175 180 177 155 138 155 158 143 206 242 188 213 196 171 181 184 229 195 154 163 179 191 161 139 154 149 144 147 140 122 44 85 140 136 144 153 154 147 141 142 143 146 152 152 147
338 336 335 334 333 330 328 327 324 322 321 319 319 319 317 316 316 317 317 316 318 319 318 319 322 323 309 304 318 327 333 341 247 237 292 291 186 175 173 173 176 186 185 176 176 176 164 111 129 149 157 215 240 180 226 203 173 176 183 190 164 157 124 133 175 152 141 146 137 138 149 144 123 74 111 152 151 164 163 157 152 145 144 148 150 152 150 147
338 335 334 333 333 332 329 326 324 322 320 318 317 316 315 314 314 317 317 317 319 318 318 318 320 325 285 295 308 321 15 198 282 242 219 339 179 174 170 173 178 187 189 184 169 166 167 118 106 133 162 227 230 211 242 204 174 208 204 94 171 152 122 127 127 132 140 138 141 148 145 122 113 110 78 153 154 154 149 150 150 145 144 147 148 151 150 150
337 335 333 331 331 331 329 327 324 321 321 320 316 315 314 314 316 318 318 319 320 317 316 314 315 310 225 284 283 353 65 260 275 211 207 7 174 176 171 176 177 180 188 186 169 161 154 139 145 154 150 250 228 220 247 210 180 207 150 83 110 112 105 100 91 54 62 104 145 142 131 135 135 137 153 146 146 133 134 140 143 141 143 146 149 153 150 151
336 335 333 332 331 330 331 329 327 323 324 323 318 315 314 316 320 319 320 320 318 316 310 308 308 267 186 151 234 353 327 254 251 220 233 172 164 174 173 175 175 177 183 188 182 161 151 156 168 153 154 243 242 243 248 190 177 200 155 124 85 86 89 90 104 100 78 61 335 108 124 156 152 134 141 177 140 130 132 137 140 140 143 148 151 152 151 153
336 334 333 332 331 332 332 331 330 327 326 326 322 318 315 318 323 322 322 321 316 311 305 302 295 191 152 143 70 331 271 251 241 229 214 165 162 172 175 177 177 178 178 191 192 170 174 175 174 169 175 243 258 267 231 150 186 183 120 102 89 98 102 105 122 118 108 103 0 14 99 132 171 122 87 313 140 134 135 140 143 145 149 153 153 153 154 155
337 335 334 333 331 332 333 334 333 329 328 329 325 318 316 319 323 324 324 321 316 306 303 289 244 152 165 177 101 239 268 301 225 204 183 169 166 169 177 180 179 180 177 185 191 187 189 165 162 183 197 263 259 259 211 169 176 119 97 78 87 101 94 107 121 111 108 106 73 22 50 40 289 258 103 230 144 137 137 145 149 151 153 156 155 155 158 159
339 336 334 333 331 332 334 335 334 331 329 328 325 320 319 323 324 327 325 321 317 308 299 263 204 162 180 140 122 221 284 325 243 211 186 177 174 176 184 186 181 182 179 176 196 199 188 141 130 163 193 273 279 302 309 154 125 116 109 80 73 85 82 99 115 117 115 105 95 84 74 349 314 298 161 153 147 140 140 149 154 155 156 158 158 158 161 162
341 338 336 334 333 333 333 334 334 333 330 326 325 326 326 324 324 325 323 324 320 311 294 226 176 162 163 92 195 229 288 345 270 230 197 185 187 192 194 192 189 188 185 178 202 205 198 190 14 220 222 312 315 323 16 107 112 117 113 94 85 78 93 113 114 123 121 124 150 117 109 299 306 271 175 147 147 143 143 152 156 159 159 159 161 161 164 167
343 340 339 337 335 336 334 333 334 333 331 328 328 334 332 323 323 322 323 328 314 301 225 177 167 158 135 234 235 237 262 327 326 236 198 192 200 201 198 198 197 196 194 187 200 207 208 229 255 251 271 326 303 279 104 107 108 103 84 100 125 85 100 132 114 127 127 105 217 133 137 211 252 257 281 150 149 145 146 155 158 161 162 162 166 165 170 172
345 343 341 339 338 338 336 335 335 333 334 333 333 339 333 319 319 322 333 350 331 292 168 159 158 147 134 257 268 277 276 269 254 241 206 193 202 201 199 200 202 203 201 197 199 203 208 227 243 267 283 232 251 281 103 93 83 108 92 78 112 118 162 151 123 139 134 123 261 320 141 183 216 249 289 169 155 148 150 159 161 163 164 167 169 169 176 176
347 345 343 342 339 340 338 337 337 335 337 337 337 340 323 315 327 357 47 105 90 113 140 146 155 147 352 275 279 317 310 253 240 236 222 200 190 193 199 196 204 208 208 208 209 217 215 228 232 248 275 226 210 102 102 66 12 109 120 77 303 132 157 140 140 158 135 140 201 223 125 164 215 226 277 189 161 151 153 160 162 164 165 169 171 172 178 178
348 345 345 342 340 342 339 337 338 337 339 341 343 345 282 279 86 100 113 119 103 118 126 133 170 180 356 285 286 321 247 225 238 232 222 211 194 189 189 186 202 208 209 215 222 251 273 297 236 218 243 209 135 116 107 71 8 319 111 157 195 132 148 146 140 182 128 133 184 231 141 145 212 214 257 205 169 157 155 161 163 163 165 170 172 174 178 177
347 345 344 340 341 344 340 338 338 337 341 347 353 137 196 198 132 128 125 109 107 131 133 114 304 183 263 284 306 323 253 230 238 219 206 208 203 185 171 172 190 186 200 223 244 277 276 208 220 228 244 116 121 109 109 147 213 272 99 130 190 138 153 156 138 180 167 146 166 172 151 150 175 197 218 203 176 163 161 164 165 164 165 170 172 175 179 178
347 344 342 339 341 344 342 339 338 338 344 354 3 171 180 142 112 127 130 111 102 126 154 298 323 71 271 288 292 295 299 269 230 198 195 202 202 184 166 160 132 132 137 258 264 256 187 204 170 187 351 107 130 114 137 200 198 193 176 132 164 150 165 176 146 171 176 164 155 149 151 148 153 191 203 189 178 173 169 167 167 166 168 171 175 177 179 177
346 344 341 338 341 344 343 340 340 340 346 2 20 94 144 116 97 121 135 119 108 161 276 241 181 97 280 266 273 294 310 301 219 183 193 202 201 189 175 149 109 110 103 81 248 217 169 195 105 144 212 180 160 153 174 199 164 167 185 159 167 161 157 160 104 143 162 154 152 161 163 151 160 195 197 174 180 178 171 170 170 168 171 173 178 183 178 175
346 345 340 338 341 344 342 340 343 343 348 5 31 102 130 117 80 37 178 164 203 232 261 214 186 248 293 269 290 322 322 304 215 183 193 200 189 172 181 116 89 92 129 153 223 220 130 165 210 198 203 196 168 172 196 196 123 132 159 173 179 148 110 110 109 132 144 138 156 163 153 161 169 182 175 77 267 180 165 176 178 172 175 176 182 186 177 177
346 344 340 339 341 344 341 339 343 344 350 357 11 109 172 184 81 313 254 239 238 225 237 230 200 232 269 270 291 345 348 312 280 204 194 194 168 141 194 113 110 136 199 183 211 339 86 166 231 223 197 190 170 178 206 180 101 135 148 157 161 110 89 75 124 132 126 118 147 136 140 182 181 159 113 62 222 179 158 187 186 180 178 178 185 185 175 175
346 343 340 339 340 342 339 338 344 344 351 356 7 109 246 221 135 331 328 285 267 223 220 235 225 247 264 267 268 264 45 282 304 293 188 177 154 149 171 102 135 196 234 148 106 18 44 222 243 236 180 159 182 198 203 125 121 169 132 132 148 124 98 63 107 117 98 147 159 161 159 171 171 129 80 59 69 2 11 297 198 187 180 180 188 183 172 167
345 342 340 339 339 341 337 337 341 342 352 351 331 258 302 313 301 310 347 288 284 247 200 210 216 236 256 266 252 205 147 202 246 281 179 161 159 174 148 112 151 179 187 137 147 142 196 239 245 236 159 142 224 241 192 124 189 187 144 132 168 169 149 112 123 118 96 179 142 145 146 147 143 125 100 73 1 269 350 6 318 203 177 180 189 180 171 163
344 341 340 337 337 341 337 334 336 345 346 334 304 316 339 337 322 315 352 225 295 294 218 194 188 197 233 259 180 159 157 201 205 235 181 155 149 174 157 145 144 161 208 171 158 174 238 257 258 234 170 158 219 257 186 165 258 231 180 171 171 182 175 111 131 127 82 60 112 113 104 216 158 154 179 158 196 247 264 29 335 313 137 146 154 167 177 167
343 339 338 336 336 340 336 331 339 351 338 321 315 341 347 344 338 338 82 47 321 295 264 196 192 221 240 208 159 166 163 206 222 205 171 154 144 151 173 156 132 180 215 175 157 205 255 260 195 253 231 161 188 248 198 158 224 303 219 206 188 180 151 110 128 130 94 151 158 145 162 227 175 174 194 185 187 218 234 53 298 318 27 101 128 161 181 172
342 337 336 336 333 337 339 336 343 341 331 311 334 345 348 351 346 351 95 46 336 294 307 137 220 260 263 199 170 145 98 242 239 178 153 160 158 142 152 179 115 187 195 165 167 221 254 233 158 211 234 173 184 236 199 143 146 300 239 211 186 163 135 131 145 143 134 194 183 174 177 173 184 193 191 189 192 202 223 244 248 289 332 76 128 160 172 174
340 336 335 334 331 336 337 301 317 329 320 313 337 342 346 349 336 278 79 41 359 291 210 221 289 42 299 267 154 119 124 246 228 152 158 169 170 115 131 190 173 186 180 147 205 235 221 205 176 198 215 194 199 227 195 144 143 246 240 189 167 155 146 151 155 148 154 135 136 182 191 112 183 203 177 187 192 191 212 233 232 243 269 178 148 232 160 164
339 336 332 330 330 329 317 299 311 313 283 320 333 340 343 344 332 140 80 58 357 323 184 240 274 266 301 295 121 125 206 204 141 226 198 170 169 96 140 198 172 186 186 149 215 260 202 196 197 190 202 214 212 215 183 155 177 246 236 159 160 153 148 153 149 134 147 116 132 211 212 114 179 181 163 177 192 191 201 218 221 221 234 210 180 241 164 140
337 334 327 326 326 319 312 298 294 300 318 327 334 336 338 344 83 86 72 88 1 308 244 312 283 277 333 308 85 79 316 89 147 237 175 158 173 95 166 199 164 207 246 164 208 263 230 205 195 175 189 216 223 222 184 171 208 248 89 105 120 124 125 129 120 109 128 120 180 204 191 140 170 183 169 171 202 203 196 205 215 216 215 193 174 206 217 101
336 332 324 322 320 316 313 296 291 317 330 329 329 331 342 12 71 64 50 69 335 269 246 9 289 271 93 116 295 353 72 326 225 102 83 128 30 40 156 172 126 210 280 251 226 250 254 231 193 174 197 208 216 220 192 183 183 91 82 87 85 95 101 85 53 45 94 215 218 193 177 154 225 208 180 178 213 201 186 189 199 210 213 184 165 177 197 116
335 331 319 314 310 297 291 297 307 325 324 325 328 335 9 36 64 86 74 30 352 276 280 287 267 177 119 144 228 252 152 283 45 118 135 126 59 26 22 62 65 36 339 327 287 270 278 250 213 218 213 192 188 217 207 185 157 98 85 94 80 35 11 47 27 3 262 240 250 182 159 135 240 247 208 220 251 189 182 189 189 197 206 197 176 163 172 116
338 330 313 305 294 268 251 273 302 311 313 323 336 360 63 42 28 100 268 337 10 254 228 217 234 208 148 141 200 213 154 232 155 144 160 137 119 182 173 167 185 77 325 282 291 309 286 240 236 252 235 177 158 212 236 157 145 111 102 108 98 57 359 46 37 319 231 249 270 162 140 107 223 214 302 249 231 192 188 190 184 189 196 199 186 151 132 80
340 330 312 302 290 275 273 286 296 300 310 331 355 43 81 68 27 239 260 314 265 230 216 194 195 160 124 115 227 237 115 230 214 163 135 105 115 206 236 217 171 135 218 225 292 335 301 284 273 242 262 191 156 176 180 151 158 140 134 133 121 119 108 134 187 240 240 291 349 140 132 45 248 202 343 320 162 116 179 170 163 182 197 196 177 135 111 87
344 335 318 306 300 298 298 297 294 294 322 358 42 60 59 63 264 260 269 263 250 256 267 161 146 111 100 135 225 196 119 252 208 139 99 57 59 241 257 257 170 132 121 196 290 179 172 283 254 189 228 205 169 180 171 151 154 160 156 146 149 160 159 180 193 204 204 125 19 59 135 249 276 350 339 353 47 42 54 125 150 174 193 178 146 123 107 101
348 338 322 309 304 312 316 287 201 167 12 39 62 63 68 104 258 268 260 254 266 304 329 57 89 78 46 350 283 237 147 238 303 105 91 78 83 267 249 250 217 158 125 132 258 197 161 249 251 229 220 177 171 188 155 128 135 173 154 131 159 183 157 152 180 155 135 118 40 17 114 298 292 300 329 8 54 59 64 90 129 151 162 157 144 136 125 115
352 341 327 307 302 317 348 145 160 154 109 72 64 51 129 219 237 196 232 259 300 326 11 37 51 55 13 346 332 342 39 60 34 67 67 102 108 349 293 253 240 179 155 161 221 239 121 264 277 291 266 186 177 178 149 139 153 143 132 158 194 175 133 124 95 75 89 99 62 34 117 13 294 273 339 43 72 66 72 96 121 131 143 158 156 145 146 141
352 347 323 298 303 309 156 164 155 146 97 83 78 349 220 224 210 193 255 294 318 20 79 61 35 61 31 343 348 346 8 24 15 49 60 42 15 336 308 281 268 193 197 179 199 200 148 270 293 280 214 253 168 132 87 95 143 124 152 195 185 88 98 108 96 50 59 95 71 357 102 244 213 174 339 68 89 67 54 82 130 141 144 163 166 143 144 149
340 341 317 301 313 270 184 170 149 130 77 73 45 313 217 229 234 220 277 308 345 48 70 90 96 94 117 121 7 334 348 24 9 48 84 31 333 282 316 294 283 294 254 195 166 178 131 256 295 264 195 275 34 83 61 353 44 122 154 170 117 113 122 92 123 140 97 108 124 2 345 277 209 161 244 180 106 78 42 48 102 151 154 164 164 142 136 149
336 352 337 340 345 240 180 163 136 88 56 63 3 295 229 266 273 262 282 312 72 71 63 72 81 72 83 121 149 324 8 106 94 76 77 53 237 225 31 307 288 322 310 160 141 205 141 140 277 284 244 261 24 65 138 317 2 53 77 47 60 132 151 136 139 147 125 130 156 114 322 268 223 195 210 165 114 98 73 53 51 51 118 148 155 133 125 141
16 49 304 342 4 170 162 141 90 52 53 78 221 239 270 283 287 305 323 23 65 70 85 102 78 78 42 22 117 98 31 45 115 93 94 150 225 298 327 317 275 308 326 59 101 173 137 115 206 291 324 94 134 169 173 170 138 73 58 52 64 90 129 125 75 78 119 135 146 136 217 263 281 338 123 126 114 108 103 82 60 45 71 106 132 126 118 120
57 46 297 2 88 151 141 94 33 67 107 286 245 244 296 298 300 324 338 38 70 97 117 125 115 114 138 34 39 93 33 350 41 94 103 336 80 273 293 138 239 292 348 33 29 56 110 112 162 281 4 114 239 255 185 172 161 139 133 157 160 136 119 103 53 338 93 120 150 152 173 254 331 24 93 107 114 116 107 93 75 55 60 77 93 108 113 110
65 63 252 62 127 148 112 57 269 164 132 244 258 252 290 316 337 333 334 23 61 82 72 83 105 96 122 134 29 63 80 17 341 79 111 173 145 200 275 326 283 280 71 45 298 265 175 97 103 242 211 187 266 279 194 162 136 117 126 159 148 130 118 122 162 216 82 88 108 103 110 169 328 311 72 104 119 117 104 94 87 74 57 58 64 76 88 87
91 244 270 48 159 156 81 14 287 355 288 246 269 248 250 290 347 340 347 24 42 72 54 44 116 88 83 141 101 76 92 67 330 91 117 137 231 240 280 323 325 334 70 33 295 283 77 66 61 314 300 310 303 315 356 27 80 88 52 121 130 123 124 136 155 149 121 134 129 80 81 171 186 266 28 120 127 110 97 95 95 91 69 58 60 61 72 77
166 252 299 4 174 166 111 295 263 326 290 283 339 308 284 70 60 357 357 13 16 85 79 26 45 92 96 109 90 118 126 105 8 17 96 120 247 265 299 337 352 27 50 40 256 296 322 55 70 62 24 4 348 354 356 350 24 83 344 27 111 110 107 111 98 83 105 186 161 123 138 162 147 149 114 121 120 100 96 101 97 94 84 71 63 58 62 67
60 271 288 339 32 156 157 186 174 205 277 313 351 329 333 357 69 21 18 19 18 83 104 22 3 73 66 54 48 10 32 110 115 343 46 90 286 309 343 348 1 24 347 245 235 278 106 101 102 122 133 149 168 233 255 289 329 337 349 27 97 116 117 121 104 85 122 183 142 123 141 130 124 134 127 121 117 104 98 101 95 91 91 85 78 73 69 65
69 53 301 328 5 78 224 213 136 165 240 319 6 315 355 12 330 344 32 42 19 33 86 75 19 49 37 38 48 12 357 42 76 56 54 10 296 301 341 353 11 1 338 339 356 37 118 74 80 128 137 165 187 224 227 163 112 13 27 54 98 113 106 110 112 129 163 141 82 263 151 137 144 152 141 130 127 119 110 108 108 106 100 90 84 80 76 71
80 72 12 339 344 2 313 327 69 153 220 137 117 277 32 35 0 345 7 36 17 18 47 31 30 75 46 22 55 21 349 16 39 41 34 347 291 291 328 6 22 356 344 352 4 39 102 30 24 85 79 190 194 251 355 105 114 124 103 104 122 116 106 109 126 165 152 128 79 211 154 142 153 158 146 140 136 126 124 125 119 114 111 104 95 87 82 76
67 197 115 113 244 252 309 321 12 77 74 106 129 341 50 48 37 14 349 356 13 24 52 26 14 87 112 61 66 33 354 24 29 0 347 358 344 336 344 355 9 3 2 1 360 50 105 28 0 26 17 16 26 14 40 82 89 57 44 67 110 121 124 118 112 145 143 137 169 168 154 148 153 153 147 148 147 139 139 139 124 112 111 110 104 95 86 76
47 29 312 25 124 214 236 273 264 78 60 67 48 35 61 61 50 32 336 1 10 0 62 82 4 29 75 77 84 52 4 39 22 331 345 18 357 17 12 340 328 360 21 20 358 53 111 21 346 352 19 19 17 14 42 71 77 58 38 37 67 93 104 103 95 93 88 95 129 138 133 126 138 148 148 143 138 132 133 132 119 111 107 105 103 99 94 88
51 74 306 0 356 282 261 282 196 85 36 28 54 43 52 68 64 59 17 33 21 337 16 95 73 50 66 74 87 100 204 146 140 307 18 69 18 41 76 288 283 342 12 26 345 358 83 15 331 355 37 7 2 11 31 58 78 71 45 31 48 72 81 87 101 98 86 94 114 119 116 112 129 139 132 127 127 128 130 129 116 109 107 104 100 95 94 93
315 250 240 82 357 322 326 339 58 89 35 11 86 60 14 27 71 88 52 30 60 30 29 102 93 67 62 61 71 85 245 168 181 270 256 160 100 114 134 195 165 10 7 25 351 358 62 89 328 30 58 343 339 359 5 32 59 55 34 16 17 50 88 92 118 135 128 126 123 121 131 151 159 137 126 130 136 135 135 132 121 111 108 107 102 93 88 85
342 292 7 97 130 337 3 345 21 80 56 309 103 75 42 22 48 100 82 5 16 58 74 111 89 67 54 45 39 346 291 241 233 262 244 205 58 80 93 53 74 71 29 35 20 0 71 99 24 42 67 308 318 341 356 31 43 27 341 339 347 35 119 100 65 129 140 138 140 153 162 153 145 140 138 142 143 140 142 140 130 123 116 111 109 102 95 88